QPF
0.00 0.00 0.00 0.00 0.00 0.00 0.00 0.00 0.00 0.00 0.00 0.00 0.00 0.00 0.00 0.00 0.00 0.00 0.00 0.00 0.00 0.00 0.00 0.00 0.00 0.00 0.00 0.00 0.00 0.00 0.00 0.00 0.00 0.00 0.00 0.00 0.00 0.00 0.00 0.00 0.00 0.00
0.00 0.00 0.00 0.00 0.00 0.00 0.00 0.00 0.00 0.00 0.00 0.00 0.00 0.00 0.00 0.00 0.00 0.00 0.00 0.00 0.00 0.00 0.00 0.00 0.00 0.00 0.00 0.00 0.00 0.00 0.00 0.00 0.00 0.00 0.00 0.00 0.00 0.00 0.00 0.00 0.00 0.00
0.00 0.00 0.00 0.00 0.00 0.00 0.00 0.00 0.00 0.00 0.00 0.00 0.00 0.00 0.00 0.00 0.00 0.00 0.00 0.00 0.00 0.00 0.00 0.00 0.00 0.00 0.00 0.00 0.00 0.00 0.00 0.00 0.00 0.00 0.00 0.00 0.00 0.00 0.00 0.00 0.00 0.00
0.00 0.00 0.00 0.00 0.00 0.00 0.00 0.00 0.00 0.00 0.00 0.00 0.00 0.00 0.00 0.00 0.00 0.00 0.00 0.00 0.00 0.00 0.00 0.00 0.00 0.00 0.00 0.00 0.00 0.00 0.00 0.00 0.00 0.00 0.00 0.00 0.00 0.00 0.00 0.00 0.00 0.00
0.00 0.00 0.00 0.00 0.00 0.00 0.00 0.00 0.00 0.00 0.00 0.00 0.00 0.00 0.00 0.00 0.00 0.00 0.00 0.00 0.00 0.00 0.00 0.00 0.00 0.00 0.00 0.00 0.00 0.00 0.00 0.00 0.00 0.00 0.00 0.00 0.00 0.00 0.00 0.00 0.00 0.00
0.00 0.00 0.00 0.00 0.00 0.00 0.00 0.00 0.00 0.00 0.00 0.00 0.00 0.00 0.00 0.00 0.00 0.00 0.00 0.00 0.00 0.00 0.00 0.00 0.00 0.00 0.00 0.00 0.00 0.00 0.00 0.00 0.00 0.00 0.00 0.00 0.00 0.00 0.00 0.00 0.00 0.00
0.00 0.00 0.00 0.00 0.00 0.00 0.00 0.00 0.00 0.00 0.00 0.00 0.00 0.00 0.00 0.00 0.00 0.00 0.00 0.00 0.00 0.00 0.00 0.00 0.00 0.00 0.00 0.00 0.00 0.00 0.00 0.00 0.00 0.00 0.00 0.00 0.00 0.00 0.00 0.00 0.00 0.00
0.00 0.00 0.00 0.00 0.00 0.00 0.00 0.00 0.00 0.00 0.00 0.00 0.00 0.00 0.00 0.00 0.00 0.00 0.00 0.00 0.00 0.00 0.00 0.00 0.00 0.00 0.00 0.00 0.00 0.00 0.00 0.00 0.00 0.00 0.00 0.00 0.00 0.00 0.00 0.00 0.00 0.00
0.00 0.00 0.00 0.00 0.00 0.00 0.00 0.00 0.00 0.00 0.00 0.00 0.00 0.00 0.00 0.00 0.00 0.00 0.00 0.00 0.00 0.00 0.00 0.00 0.00 0.00 0.00 0.00 0.00 0.00 0.00 0.00 0.00 0.00 0.00 0.00 0.00 0.00 0.00 0.00 0.00 0.00
0.00 0.00 0.00 0.00 0.00 0.00 0.00 0.00 0.00 0.00 0.00 0.00 0.00 0.00 0.00 0.00 0.00 0.00 0.00 0.00 0.00 0.00 0.00 0.00 0.00 0.00 0.00 0.00 0.00 0.00 0.00 0.00 0.00 0.00 0.00 0.00 0.00 0.00 0.00 0.00 0.00 0.00
0.00 0.00 0.00 0.00 0.00 0.00 0.00 0.00 0.00 0.00 0.00 0.00 0.00 0.00 0.00 0.00 0.00 0.00 0.00 0.00 0.00 0.00 0.00 0.00 0.00 0.00 0.00 0.00 0.00 0.00 0.00 0.00 0.00 0.00 0.00 0.00 0.00 0.00 0.00 0.00 0.00 0.00
0.00 0.00 0.00 0.00 0.00 0.00 0.00 0.00 0.00 0.00 0.00 0.00 0.00 0.00 0.00 0.00 0.00 0.00 0.00 0.00 0.00 0.00 0.00 0.00 0.00 0.00 0.00 0.00 0.00 0.00 0.00 0.00 0.00 0.00 0.00 0.00 0.00 0.00 0.00 0.00 0.00 0.00
0.00 0.00 0.00 0.00 0.00 0.00 0.00 0.00 0.00 0.00 0.00 0.00 0.00 0.00 0.00 0.00 0.00 0.00 0.00 0.00 0.00 0.00 0.00 0.00 0.00 0.00 0.00 0.00 0.00 0.00 0.00 0.00 0.00 0.00 0.00 0.00 0.00 0.00 0.00 0.00 0.00 0.00
0.00 0.00 0.00 0.00 0.00 0.00 0.00 0.00 0.00 0.00 0.00 0.00 0.00 0.00 0.00 0.00 0.00 0.00 0.00 0.00 0.00 0.00 0.00 0.00 0.00 0.00 0.00 0.00 0.00 0.00 0.00 0.00 0.00 0.00 0.00 0.00 0.00 0.00 0.00 0.00 0.00 0.00
0.00 0.00 0.00 0.00 0.00 0.00 0.00 0.00 0.00 0.00 0.00 0.00 0.00 0.00 0.00 0.00 0.00 0.00 0.00 0.00 0.00 0.00 0.00 0.00 0.00 0.00 0.00 0.00 0.00 0.00 0.00 0.00 0.00 0.00 0.00 0.00 0.00 0.00 0.00 0.00 0.00 0.00
0.05 0.00 0.00 0.00 0.00 0.00 0.00 0.00 0.00 0.00 0.00 0.00 0.00 0.00 0.00 0.00 0.00 0.00 0.00 0.00 0.00 0.00 0.00 0.00 0.00 0.00 0.00 0.00 0.00 0.00 0.00 0.00 0.00 0.00 0.00 0.00 0.00 0.00 -0.00 0.00 0.00 0.00
0.08 0.03 0.00 0.00 0.00 0.00 0.00 0.00 0.00 0.00 0.00 0.00 0.00 0.00 0.00 0.00 0.00 0.00 0.00 0.00 0.00 0.00 0.00 0.00 0.00 0.00 0.00 0.00 0.00 0.00 0.00 0.00 0.00 0.00 0.00 0.00 0.00 0.00 0.00 0.00 0.00 0.00
0.10 0.03 0.05 0.05 0.00 0.00 0.00 0.00 0.00 0.00 0.00 0.00 0.00 0.00 0.00 0.00 0.00 0.00 0.00 0.00 0.00 0.00 0.00 0.00 0.00 0.00 0.00 0.00 0.00 0.00 0.00 0.00 0.00 0.00 0.00 0.00 0.00 0.00 0.00 0.00 0.00 0.00
0.11 0.05 0.06 0.03 0.00 0.00 0.00 0.00 0.00 0.00 0.00 0.00 0.00 0.00 0.00 0.00 0.00 0.00 0.00 0.00 0.00 0.00 0.00 0.00 0.00 0.00 0.00 0.00 0.00 0.00 0.00 0.00 0.00 0.00 0.00 0.00 0.00 0.00 0.00 0.00 0.00 0.00
0.06 0.05 0.09 0.05 0.02 0.00 0.00 0.00 0.00 0.00 0.00 0.00 0.00 0.00 0.00 0.00 0.00 0.00 0.00 0.00 0.00 0.00 0.00 0.00 0.00 0.00 0.00 0.00 0.00 0.00 0.00 0.00 0.00 0.00 0.00 0.00 0.00 0.00 0.00 0.00 -0.00 0.00
0.04 0.03 0.04 0.04 0.01 0.00 0.00 0.00 0.00 0.00 0.00 0.00 0.00 0.00 0.00 0.00 0.00 0.00 0.00 0.00 0.00 0.00 0.00 0.00 0.00 0.00 0.00 0.00 0.00 0.00 0.00 0.00 0.00 0.00 0.00 0.00 0.00 0.00 0.00 0.00 0.00 0.00
0.10 0.14 0.10 0.02 0.00 0.00 0.00 0.00 0.00 0.00 0.00 0.00 0.00 0.00 0.00 0.00 0.00 0.00 0.00 0.00 0.00 0.00 0.00 0.00 0.00 0.00 0.00 0.00 0.00 0.00 0.00 0.00 0.00 0.00 0.00 0.00 0.00 0.00 0.00 0.00 0.00 0.00
0.22 0.16 0.04 0.01 0.00 0.00 0.00 0.00 0.00 0.00 0.00 0.00 0.00 0.00 0.00 0.00 0.00 0.00 0.00 0.00 0.00 0.00 0.00 0.00 0.00 0.00 0.00 0.00 0.00 0.00 0.00 0.00 0.00 0.00 0.00 0.00 0.00 0.00 0.00 0.00 0.00 0.00
0.07 0.05 0.04 0.00 0.01 0.01 0.00 0.00 0.00 0.00 0.00 0.00 0.00 0.00 0.00 0.00 0.00 0.00 0.00 0.00 0.00 0.00 0.00 0.00 0.00 0.00 0.00 0.00 0.00 0.00 0.00 0.00 0.00 0.00 0.00 0.00 0.00 0.00 0.00 0.00 0.00 0.00
0.02 0.01 0.00 0.00 0.00 0.00 0.00 0.00 0.00 0.00 0.00 0.00 0.00 0.00 0.00 0.00 0.00 0.00 0.00 0.00 0.00 0.00 0.00 0.00 0.00 0.00 0.00 0.00 0.00 0.00 0.00 0.00 0.00 0.00 0.00 0.00 -0.00 0.00 0.00 0.00 0.00 0.00
0.04 0.01 0.00 0.01 0.00 0.00 0.00 0.00 0.00 0.00 0.00 0.00 0.00 0.00 0.00 0.00 0.00 0.00 0.00 0.00 0.00 0.00 0.00 0.00 0.00 0.00 0.00 0.00 0.00 0.00 0.00 0.00 0.00 0.00 0.00 0.00 -0.00 0.00 -0.00 0.00 0.00 0.00
MSLP
1016.31 1016.59 1016.83 1017.11 1017.27 1017.31 1017.59 1017.87 1018.11 1018.15 1018.27 1018.43 1018.51 1018.59 1018.67 1018.63 1018.83 1018.87 1018.91 1019.03 1019.07 1019.15 1019.23 1019.31 1019.35 1019.39 1019.35 1019.35 1019.43 1019.51 1019.51 1019.55 1019.55 1019.51 1019.39 1019.31 1019.35 1019.39 1019.35 1019.27 1019.19 1019.15
1016.11 1016.31 1016.55 1016.83 1017.07 1017.23 1017.39 1017.51 1017.75 1017.87 1018.07 1018.23 1018.27 1018.39 1018.59 1018.67 1018.79 1018.87 1018.95 1019.03 1019.11 1019.23 1019.35 1019.43 1019.47 1019.51 1019.55 1019.55 1019.51 1019.51 1019.63 1019.67 1019.63 1019.59 1019.59 1019.51 1019.43 1019.31 1019.35 1019.31 1019.27 1019.15
1015.99 1016.19 1016.35 1016.55 1016.71 1016.99 1017.19 1017.39 1017.51 1017.71 1017.87 1018.07 1018.19 1018.31 1018.47 1018.63 1018.79 1018.91 1018.95 1019.03 1019.15 1019.27 1019.35 1019.47 1019.59 1019.67 1019.67 1019.71 1019.71 1019.75 1019.75 1019.71 1019.71 1019.71 1019.67 1019.67 1019.67 1019.59 1019.47 1019.39 1019.31 1019.23
1015.67 1015.79 1015.99 1016.23 1016.43 1016.67 1016.99 1017.27 1017.47 1017.63 1017.83 1018.07 1018.11 1018.23 1018.35 1018.59 1018.71 1018.87 1018.99 1019.07 1019.23 1019.31 1019.43 1019.55 1019.59 1019.71 1019.75 1019.79 1019.83 1019.87 1019.87 1019.83 1019.83 1019.75 1019.71 1019.75 1019.75 1019.75 1019.71 1019.55 1019.39 1019.31
1015.19 1015.59 1015.83 1016.03 1016.23 1016.43 1016.79 1017.03 1017.27 1017.47 1017.63 1017.75 1018.03 1018.19 1018.35 1018.59 1018.79 1018.91 1019.07 1019.19 1019.27 1019.39 1019.55 1019.59 1019.75 1019.83 1019.87 1019.83 1019.87 1019.87 1019.91 1019.91 1019.83 1019.79 1019.71 1019.71 1019.75 1019.79 1019.71 1019.67 1019.59 1019.51
1014.95 1015.23 1015.55 1015.83 1016.11 1016.35 1016.67 1016.83 1017.03 1017.27 1017.47 1017.71 1017.87 1018.11 1018.27 1018.51 1018.71 1018.87 1019.03 1019.19 1019.35 1019.43 1019.59 1019.67 1019.71 1019.75 1019.75 1019.79 1019.83 1019.91 1019.91 1019.95 1019.87 1019.83 1019.79 1019.75 1019.71 1019.71 1019.67 1019.63 1019.59 1019.51
1014.59 1014.99 1015.31 1015.59 1015.95 1016.23 1016.47 1016.75 1016.95 1017.11 1017.27 1017.47 1017.83 1017.99 1018.19 1018.43 1018.63 1018.83 1018.99 1019.11 1019.31 1019.43 1019.55 1019.63 1019.67 1019.71 1019.71 1019.71 1019.75 1019.79 1019.83 1019.91 1019.91 1019.91 1019.87 1019.79 1019.71 1019.59 1019.59 1019.55 1019.47 1019.35
1014.27 1014.67 1015.03 1015.43 1015.71 1016.11 1016.35 1016.67 1016.87 1017.03 1017.23 1017.51 1017.63 1017.91 1018.07 1018.31 1018.51 1018.71 1018.87 1019.03 1019.19 1019.31 1019.39 1019.51 1019.59 1019.59 1019.63 1019.79 1019.95 1020.03 1020.03 1019.99 1019.95 1019.95 1019.91 1019.87 1019.83 1019.71 1019.55 1019.51 1019.43 1019.31
1014.07 1014.51 1014.91 1015.23 1015.55 1015.95 1016.19 1016.51 1016.75 1016.95 1017.15 1017.31 1017.59 1017.83 1018.03 1018.19 1018.39 1018.63 1018.79 1018.95 1019.07 1019.23 1019.35 1019.43 1019.63 1019.79 1019.83 1019.75 1019.79 1019.83 1019.87 1019.87 1019.87 1019.87 1019.87 1019.83 1019.79 1019.71 1019.63 1019.51 1019.43 1019.27
1013.95 1014.31 1014.75 1015.11 1015.39 1015.79 1016.03 1016.35 1016.59 1016.79 1017.03 1017.23 1017.47 1017.75 1017.95 1018.19 1018.35 1018.47 1018.67 1018.87 1018.99 1019.19 1019.43 1019.59 1019.63 1019.67 1019.71 1019.75 1019.67 1019.71 1019.71 1019.75 1019.75 1019.75 1019.71 1019.71 1019.63 1019.59 1019.51 1019.43 1019.35 1019.19
1013.79 1014.15 1014.51 1014.91 1015.15 1015.63 1015.83 1016.19 1016.39 1016.67 1016.95 1017.15 1017.47 1017.67 1017.87 1018.07 1018.31 1018.51 1018.67 1018.87 1019.03 1019.23 1019.35 1019.43 1019.51 1019.59 1019.59 1019.63 1019.63 1019.59 1019.59 1019.55 1019.55 1019.55 1019.51 1019.47 1019.39 1019.31 1019.23 1019.15 1019.07 1018.95
1013.67 1014.03 1014.31 1014.67 1015.03 1015.43 1015.71 1016.03 1016.31 1016.59 1016.87 1017.15 1017.39 1017.59 1017.83 1018.07 1018.27 1018.55 1018.67 1018.83 1018.99 1019.11 1019.23 1019.39 1019.47 1019.55 1019.59 1019.59 1019.59 1019.59 1019.59 1019.55 1019.47 1019.39 1019.31 1019.23 1019.11 1018.95 1018.87 1018.83 1018.79 1018.71
1013.79 1013.87 1014.23 1014.71 1015.07 1015.35 1015.71 1016.03 1016.23 1016.55 1016.83 1017.15 1017.39 1017.55 1017.83 1018.15 1018.35 1018.47 1018.63 1018.71 1018.95 1019.03 1019.07 1019.15 1019.19 1019.27 1019.35 1019.39 1019.43 1019.47 1019.47 1019.43 1019.39 1019.31 1019.19 1019.07 1018.87 1018.71 1018.55 1018.47 1018.43 1018.35
1014.03 1014.07 1014.35 1014.79 1015.15 1015.43 1015.67 1015.95 1016.23 1016.51 1016.79 1017.11 1017.43 1017.63 1017.87 1018.07 1018.19 1018.27 1018.51 1018.59 1018.71 1018.75 1018.87 1018.95 1019.03 1019.11 1019.19 1019.23 1019.23 1019.27 1019.31 1019.31 1019.27 1019.19 1019.07 1018.95 1018.79 1018.55 1018.39 1018.31 1018.23 1018.11
1015.03 1014.79 1014.83 1015.07 1015.35 1015.55 1015.75 1015.99 1016.23 1016.47 1016.79 1017.07 1017.35 1017.63 1017.83 1017.99 1018.11 1018.19 1018.35 1018.43 1018.59 1018.67 1018.79 1018.91 1018.91 1018.95 1018.99 1018.99 1018.99 1018.99 1019.07 1019.07 1019.03 1018.95 1018.87 1018.79 1018.67 1018.51 1018.39 1018.27 1018.11 1017.99
1015.71 1015.47 1015.47 1015.51 1015.63 1015.71 1015.79 1016.03 1016.23 1016.51 1016.71 1017.03 1017.35 1017.63 1017.79 1017.95 1018.03 1018.11 1018.15 1018.27 1018.43 1018.59 1018.71 1018.79 1018.83 1018.87 1018.79 1018.75 1018.79 1018.79 1018.79 1018.79 1018.75 1018.67 1018.59 1018.51 1018.43 1018.27 1018.19 1018.11 1018.03 1017.95
1015.47 1015.59 1015.71 1015.79 1015.83 1015.87 1015.99 1016.07 1016.19 1016.43 1016.71 1017.07 1017.43 1017.63 1017.79 1017.83 1017.91 1017.95 1018.15 1018.35 1018.43 1018.55 1018.67 1018.75 1018.79 1018.79 1018.67 1018.67 1018.63 1018.59 1018.55 1018.51 1018.47 1018.35 1018.31 1018.23 1018.19 1018.11 1017.95 1017.83 1017.71 1017.63
1014.23 1014.83 1015.47 1016.19 1016.15 1015.99 1015.95 1015.99 1016.15 1016.39 1016.71 1017.15 1017.43 1017.63 1017.71 1017.87 1017.95 1018.11 1018.27 1018.43 1018.51 1018.59 1018.67 1018.71 1018.75 1018.63 1018.55 1018.51 1018.47 1018.43 1018.39 1018.31 1018.27 1018.19 1018.07 1017.99 1017.91 1017.83 1017.71 1017.55 1017.43 1017.31
1013.79 1014.23 1015.11 1015.99 1016.15 1015.95 1015.91 1015.91 1016.03 1016.39 1016.83 1017.15 1017.35 1017.55 1017.71 1017.79 1018.23 1018.35 1018.35 1018.43 1018.47 1018.51 1018.55 1018.55 1018.55 1018.51 1018.47 1018.43 1018.35 1018.31 1018.27 1018.23 1018.23 1018.11 1017.95 1017.79 1017.71 1017.59 1017.47 1017.31 1017.15 1016.95
1013.31 1013.75 1014.79 1015.63 1015.79 1015.63 1015.55 1015.67 1015.95 1016.31 1016.75 1017.03 1017.27 1017.63 1017.91 1018.23 1018.27 1018.31 1018.47 1018.47 1018.43 1018.43 1018.47 1018.59 1018.59 1018.47 1018.35 1018.27 1018.19 1018.07 1017.99 1017.99 1017.95 1017.87 1017.75 1017.59 1017.43 1017.31 1017.11 1016.99 1016.83 1016.67
1013.19 1013.47 1014.23 1015.03 1015.23 1015.27 1015.35 1015.51 1015.95 1016.39 1016.67 1017.07 1017.39 1017.67 1017.87 1018.07 1018.31 1018.35 1018.35 1018.31 1018.31 1018.39 1018.47 1018.47 1018.43 1018.27 1018.15 1018.07 1017.99 1017.87 1017.79 1017.75 1017.71 1017.59 1017.47 1017.27 1017.07 1016.91 1016.79 1016.63 1016.43 1016.27
1012.99 1013.63 1014.03 1014.51 1014.83 1015.19 1015.35 1015.59 1015.87 1016.23 1016.79 1017.23 1017.47 1017.79 1017.95 1018.11 1018.19 1018.19 1018.15 1018.15 1018.19 1018.23 1018.23 1018.23 1018.19 1018.03 1017.91 1017.79 1017.71 1017.63 1017.55 1017.51 1017.47 1017.31 1017.11 1016.91 1016.71 1016.55 1016.35 1016.15 1016.03 1015.87
1013.19 1013.59 1013.99 1014.27 1014.71 1014.99 1015.23 1015.63 1016.15 1016.63 1016.95 1017.35 1017.43 1017.63 1017.71 1017.79 1017.87 1017.95 1018.03 1018.03 1017.95 1017.87 1017.91 1017.91 1017.87 1017.71 1017.55 1017.47 1017.39 1017.31 1017.31 1017.23 1017.15 1016.95 1016.75 1016.51 1016.27 1016.11 1015.91 1015.71 1015.59 1015.43
1013.23 1013.67 1014.03 1014.27 1014.71 1014.83 1015.35 1015.91 1016.27 1016.63 1016.87 1017.15 1017.19 1017.43 1017.51 1017.63 1017.71 1017.71 1017.67 1017.59 1017.55 1017.59 1017.63 1017.63 1017.59 1017.43 1017.31 1017.23 1017.15 1017.07 1017.03 1016.95 1016.79 1016.59 1016.31 1016.15 1015.87 1015.67 1015.51 1015.27 1015.07 1014.87
1012.83 1013.35 1013.75 1014.11 1014.59 1015.07 1015.55 1015.95 1016.23 1016.47 1016.91 1017.11 1017.03 1017.11 1017.11 1017.27 1017.35 1017.19 1017.23 1017.43 1017.51 1017.47 1017.39 1017.43 1017.43 1017.35 1017.23 1017.11 1016.95 1016.83 1016.75 1016.63 1016.51 1016.27 1015.99 1015.75 1015.55 1015.15 1015.03 1014.79 1014.59 1014.43
1012.83 1013.23 1013.51 1013.75 1014.39 1015.11 1015.63 1015.87 1016.31 1016.71 1016.83 1016.87 1016.87 1016.79 1016.75 1016.91 1017.03 1017.15 1017.19 1017.23 1017.27 1017.15 1017.27 1017.39 1017.39 1017.27 1017.11 1016.91 1016.71 1016.55 1016.43 1016.35 1016.19 1016.03 1015.67 1015.35 1015.11 1014.87 1014.47 1014.23 1014.15 1013.99
Thickness
5595 5594 5592 5591 5590 5590 5588 5586 5585 5585 5584 5584 5585 5585 5585 5585 5585 5584 5584 5584 5584 5583 5583 5583 5584 5585 5586 5587 5587 5587 5587 5587 5589 5590 5591 5593 5593 5594 5595 5596 5597 5598
5594 5593 5591 5590 5589 5588 5587 5586 5585 5584 5583 5583 5583 5583 5582 5581 5581 5581 5581 5581 5581 5580 5580 5580 5580 5580 5581 5582 5582 5582 5583 5583 5584 5585 5586 5587 5588 5590 5590 5591 5592 5593
5592 5591 5590 5589 5588 5587 5585 5584 5583 5583 5581 5581 5580 5580 5579 5579 5578 5577 5577 5577 5577 5576 5576 5576 5576 5576 5576 5576 5576 5577 5577 5578 5579 5580 5580 5581 5582 5583 5584 5586 5587 5588
5591 5590 5589 5587 5587 5586 5583 5582 5580 5579 5579 5578 5577 5577 5576 5575 5574 5573 5573 5573 5572 5571 5571 5571 5571 5571 5571 5571 5571 5572 5572 5573 5574 5575 5575 5576 5576 5577 5578 5579 5581 5582
5591 5588 5587 5585 5584 5583 5581 5579 5578 5577 5576 5575 5574 5573 5572 5571 5569 5569 5568 5567 5567 5566 5566 5565 5565 5565 5566 5566 5566 5566 5566 5567 5568 5570 5570 5571 5571 5571 5572 5573 5574 5575
5590 5587 5586 5584 5582 5580 5578 5577 5575 5574 5573 5571 5570 5568 5567 5566 5565 5564 5563 5562 5562 5561 5560 5560 5560 5560 5561 5560 5560 5560 5561 5562 5563 5564 5565 5565 5566 5567 5568 5568 5569 5569
5590 5587 5584 5582 5580 5577 5575 5573 5572 5571 5570 5567 5566 5565 5563 5562 5560 5559 5558 5557 5556 5556 5555 5555 5555 5555 5555 5555 5555 5555 5555 5556 5557 5557 5558 5559 5561 5561 5562 5564 5565 5565
5590 5586 5583 5580 5577 5574 5572 5570 5568 5567 5565 5564 5562 5561 5559 5558 5556 5555 5554 5552 5552 5551 5550 5550 5550 5549 5549 5549 5549 5549 5549 5550 5550 5551 5552 5553 5554 5555 5556 5558 5559 5561
5587 5584 5581 5578 5575 5572 5569 5567 5565 5563 5562 5560 5558 5557 5555 5554 5552 5550 5549 5548 5547 5546 5545 5545 5544 5543 5543 5543 5543 5543 5544 5544 5544 5545 5546 5546 5547 5548 5549 5550 5552 5554
5584 5581 5578 5575 5572 5570 5567 5565 5563 5560 5559 5557 5555 5553 5551 5549 5548 5546 5545 5544 5542 5541 5540 5539 5538 5538 5538 5538 5538 5538 5538 5538 5539 5539 5539 5540 5541 5542 5543 5544 5545 5547
5581 5577 5574 5572 5569 5566 5564 5562 5560 5557 5555 5552 5550 5548 5546 5545 5543 5541 5540 5539 5537 5536 5535 5533 5533 5532 5532 5532 5532 5532 5533 5533 5533 5533 5534 5535 5535 5536 5537 5539 5539 5541
5576 5574 5571 5568 5565 5562 5559 5557 5555 5553 5550 5548 5545 5544 5542 5540 5538 5537 5535 5534 5532 5531 5530 5529 5528 5527 5527 5526 5526 5526 5526 5526 5527 5528 5528 5529 5531 5531 5532 5533 5534 5535
5571 5569 5566 5562 5559 5557 5555 5552 5550 5547 5545 5542 5541 5539 5537 5535 5533 5532 5531 5530 5528 5527 5526 5525 5524 5523 5522 5522 5521 5521 5520 5520 5521 5522 5522 5523 5525 5526 5527 5527 5528 5529
5564 5563 5560 5556 5552 5550 5549 5547 5545 5542 5540 5537 5535 5533 5531 5530 5529 5528 5527 5525 5525 5524 5522 5521 5520 5519 5518 5517 5517 5516 5515 5515 5515 5515 5516 5517 5518 5520 5521 5521 5522 5523
5551 5551 5549 5547 5545 5543 5542 5541 5539 5537 5535 5532 5530 5528 5527 5525 5525 5523 5523 5522 5521 5520 5518 5517 5516 5515 5514 5514 5513 5512 5512 5511 5511 5511 5511 5512 5512 5513 5514 5514 5515 5516
5539 5539 5539 5537 5537 5536 5535 5535 5534 5532 5530 5527 5525 5523 5521 5521 5520 5519 5519 5518 5516 5515 5514 5513 5512 5511 5510 5510 5509 5508 5508 5507 5507 5507 5507 5507 5508 5508 5508 5509 5509 5509
5535 5534 5532 5529 5528 5528 5528 5528 5528 5526 5525 5522 5519 5517 5516 5516 5515 5514 5514 5512 5512 5511 5509 5508 5507 5506 5505 5505 5503 5503 5502 5503 5503 5503 5502 5502 5502 5503 5504 5504 5504 5504
5537 5534 5530 5522 5518 5520 5521 5522 5522 5521 5519 5515 5514 5512 5511 5510 5509 5508 5508 5507 5506 5505 5504 5503 5502 5501 5501 5500 5499 5498 5497 5497 5497 5497 5497 5496 5496 5497 5497 5498 5499 5499
5537 5534 5527 5517 5513 5514 5515 5517 5517 5515 5513 5510 5508 5507 5505 5504 5503 5502 5501 5501 5500 5500 5499 5499 5497 5497 5496 5495 5494 5493 5492 5491 5490 5489 5490 5490 5489 5489 5490 5491 5492 5493
5534 5532 5524 5515 5511 5512 5512 5513 5512 5509 5507 5506 5503 5500 5499 5497 5496 5496 5495 5495 5496 5495 5494 5493 5492 5491 5491 5489 5489 5488 5486 5485 5484 5483 5483 5483 5483 5483 5482 5483 5485 5485
5529 5527 5521 5513 5509 5509 5510 5509 5507 5504 5502 5500 5497 5495 5493 5492 5491 5490 5490 5490 5490 5490 5489 5488 5487 5486 5485 5484 5484 5482 5481 5480 5478 5477 5477 5477 5477 5476 5475 5477 5477 5478
5524 5521 5516 5511 5507 5505 5505 5504 5502 5499 5496 5493 5491 5489 5488 5487 5486 5486 5486 5485 5486 5485 5485 5484 5482 5481 5480 5480 5478 5476 5475 5474 5472 5471 5471 5471 5471 5470 5470 5470 5470 5471
5516 5513 5508 5504 5501 5501 5501 5499 5497 5494 5490 5488 5486 5485 5484 5483 5482 5481 5481 5481 5481 5481 5480 5479 5478 5477 5476 5474 5473 5471 5469 5467 5466 5465 5465 5465 5465 5464 5464 5464 5464 5464
5508 5505 5500 5496 5495 5495 5494 5492 5490 5487 5484 5482 5482 5481 5480 5479 5479 5478 5478 5478 5477 5477 5475 5474 5473 5471 5469 5468 5466 5464 5462 5460 5459 5459 5459 5459 5459 5459 5458 5459 5459 5460
5504 5499 5494 5492 5490 5488 5486 5485 5483 5480 5478 5477 5478 5478 5478 5476 5475 5475 5475 5474 5472 5471 5470 5468 5466 5465 5463 5461 5459 5457 5455 5453 5452 5452 5453 5453 5453 5454 5454 5454 5454 5454
5497 5493 5490 5489 5486 5483 5481 5479 5477 5474 5472 5472 5473 5474 5474 5473 5472 5470 5470 5468 5467 5466 5464 5460 5458 5458 5456 5454 5452 5450 5448 5446 5445 5444 5445 5446 5447 5448 5449 5450 5449 5448